| time (UTC) | temp C | wind direction | speed KPH | gust KPH | rain 1hr cm | rain 24hr cm | rain mn cm | humidity % | barometer mb |
| 20260502220528 | 18 | 259 | 19.3 | 32.2 | 0.00 | 0.00 | 0.00 | 35 | 1007.9 |
| 20260502220034 | 18 | 258 | 22.5 | 30.6 | 0.00 | 0.00 | 0.00 | 34 | 1008.0 |
| 20260502215528 | 18 | 259 | 22.5 | 30.6 | 0.00 | 0.00 | 0.00 | 35 | 1007.9 |
| 20260502215027 | 18 | 248 | 20.9 | 37.0 | 0.00 | 0.00 | 0.00 | 35 | 1008.2 |
| 20260502214525 | 17 | 276 | 24.1 | 41.8 | 0.00 | 0.00 | 0.00 | 34 | 1008.4 |
| 20260502214024 | 17 | 255 | 27.4 | 43.5 | 0.00 | 0.00 | 0.00 | 35 | 1008.4 |
| 20260502213524 | 17 | 275 | 27.4 | 41.8 | 0.00 | 0.00 | 0.00 | 35 | 1008.7 |
| 20260502213024 | 17 | 279 | 24.1 | 45.1 | 0.00 | 0.00 | 0.00 | 34 | 1008.6 |
| 20260502212523 | 17 | 274 | 29.0 | 45.1 | 0.00 | 0.00 | 0.00 | 35 | 1008.5 |
| 20260502212022 | 17 | 270 | 12.9 | 33.8 | 0.00 | 0.00 | 0.00 | 35 | 1008.7 |
| 20260502211530 | 17 | 346 | 12.9 | 33.8 | 0.00 | 0.00 | 0.00 | 35 | 1009.0 |
| 20260502211020 | 17 | 264 | 16.1 | 27.4 | 0.00 | 0.00 | 0.00 | 34 | 1009.3 |
| 20260502210521 | 17 | 289 | 17.7 | 25.7 | 0.00 | 0.00 | 0.00 | 34 | 1009.2 |
| 20260502210019 | 17 | 47 | 6.4 | 37.0 | 0.00 | 0.00 | 0.00 | 35 | 1009.2 |
| 20260502205522 | 17 | 38 | 6.4 | 37.0 | 0.00 | 0.00 | 0.00 | 33 | 1009.7 |
| 20260502205019 | 17 | 294 | 24.1 | 38.6 | 0.00 | 0.00 | 0.00 | 32 | 1009.3 |
| 20260502204521 | 18 | 300 | 25.7 | 40.2 | 0.00 | 0.00 | 0.00 | 31 | 1009.4 |
| 20260502204023 | 18 | 277 | 22.5 | 40.2 | 0.00 | 0.00 | 0.00 | 33 | 1009.3 |
| 20260502203518 | 18 | 288 | 20.9 | 33.8 | 0.00 | 0.00 | 0.00 | 32 | 1009.4 |
| 20260502203021 | 18 | 290 | 14.5 | 38.6 | 0.00 | 0.00 | 0.00 | 33 | 1009.6 |
| 20260502202516 | 18 | 300 | 25.7 | 40.2 | 0.00 | 0.00 | 0.00 | 33 | 1009.5 |
| 20260502202016 | 18 | 278 | 30.6 | 43.5 | 0.00 | 0.00 | 0.00 | 33 | 1009.4 |
| 20260502201516 | 18 | 286 | 30.6 | 41.8 | 0.00 | 0.00 | 0.00 | 32 | 1009.3 |
| 20260502201016 | 18 | 290 | 30.6 | 46.7 | 0.00 | 0.00 | 0.00 | 33 | 1009.3 |
| 20260502200515 | 18 | 294 | 27.4 | 38.6 | 0.00 | 0.00 | 0.00 | 32 | 1009.4 |
| 20260502200015 | 18 | 300 | 20.9 | 35.4 | 0.00 | 0.00 | 0.00 | 32 | 1009.4 |
| 20260502195513 | 18 | 281 | 24.1 | 35.4 | 0.00 | 0.00 | 0.00 | 33 | 1009.5 |
| 20260502195013 | 18 | 289 | 24.1 | 40.2 | 0.00 | 0.00 | 0.00 | 33 | 1009.5 |
| 20260502194520 | 18 | 254 | 25.7 | 40.2 | 0.00 | 0.00 | 0.00 | 33 | 1009.5 |
| 20260502194013 | 18 | 286 | 24.1 | 37.0 | 0.00 | 0.00 | 0.00 | 34 | 1009.5 |
| 20260502193516 | 18 | 280 | 25.7 | 37.0 | 0.00 | 0.00 | 0.00 | 34 | 1009.6 |
| 20260502193012 | 19 | 304 | 24.1 | 37.0 | 0.00 | 0.00 | 0.00 | 33 | 1009.6 |
| 20260502192515 | 19 | 281 | 25.7 | 37.0 | 0.00 | 0.00 | 0.00 | 33 | 1009.7 |
| 20260502192010 | 18 | 297 | 20.9 | 32.2 | 0.00 | 0.00 | 0.00 | 33 | 1009.8 |
| 20260502191510 | 19 | 288 | 24.1 | 35.4 | 0.00 | 0.00 | 0.00 | 34 | 1009.9 |
| 20260502191009 | 19 | 275 | 22.5 | 35.4 | 0.00 | 0.00 | 0.00 | 33 | 1009.9 |
| 20260502190507 | 20 | 283 | 16.1 | 33.8 | 0.00 | 0.00 | 0.00 | 35 | 1010.0 |
| 20260502190105 | 19 | 302 | 17.7 | 33.8 | 0.00 | 0.00 | 0.00 | 36 | 1010.2 |
| 20260502185504 | 18 | 303 | 17.7 | 27.4 | 0.00 | 0.00 | 0.00 | 36 | 1010.3 |
| 20260502185003 | 18 | 263 | 20.9 | 35.4 | 0.00 | 0.00 | 0.00 | 37 | 1010.4 |
| 20260502184502 | 19 | 310 | 25.7 | 40.2 | 0.00 | 0.00 | 0.00 | 36 | 1010.4 |
| 20260502184002 | 19 | 287 | 29.0 | 40.2 | 0.00 | 0.00 | 0.00 | 36 | 1010.4 |
| 20260502183501 | 19 | 257 | 20.9 | 32.2 | 0.00 | 0.00 | 0.00 | 36 | 1010.6 |
| 20260502183108 | 19 | 317 | 22.5 | 32.2 | 0.00 | 0.00 | 0.00 | 37 | 1010.7 |
| 20260502182600 | 19 | 273 | 22.5 | 32.2 | 0.00 | 0.00 | 0.00 | 40 | 1010.7 |
| 20260502182057 | 18 | 278 | 19.3 | 33.8 | 0.00 | 0.00 | 0.00 | 39 | 1010.8 |
| 20260502181557 | 18 | 281 | 22.5 | 33.8 | 0.00 | 0.00 | 0.00 | 40 | 1011.0 |
| 20260502181054 | 18 | 297 | 16.1 | 37.0 | 0.00 | 0.00 | 0.00 | 42 | 1011.1 |
| 20260502180553 | 18 | 286 | 25.7 | 37.0 | 0.00 | 0.00 | 0.00 | 40 | 1011.2 |
| 20260502164029 | 15 | 260 | 19.3 | 29.0 | 0.00 | 0.00 | 0.00 | 45 | 1012.9 |
| 20260502163528 | 15 | 286 | 19.3 | 29.0 | 0.00 | 0.00 | 0.00 | 45 | 1012.9 |
| 20260502163039 | 15 | 282 | 19.3 | 29.0 | 0.00 | 0.00 | 0.00 | 46 | 1013.1 |
| 20260502162527 | 15 | 267 | 20.9 | 29.0 | 0.00 | 0.00 | 0.00 | 48 | 1013.1 |
| 20260502162023 | 15 | 258 | 20.9 | 35.4 | 0.00 | 0.00 | 0.00 | 50 | 1013.2 |
| 20260502161534 | 15 | 269 | 20.9 | 35.4 | 0.00 | 0.00 | 0.00 | 49 | 1013.3 |
| 20260502161021 | 14 | 300 | 14.5 | 25.7 | 0.00 | 0.00 | 0.00 | 50 | 1013.4 |
| 20260502160521 | 14 | 261 | 16.1 | 27.4 | 0.00 | 0.00 | 0.00 | 49 | 1013.6 |
| 20260502152008 | 12 | 271 | 17.7 | 29.0 | 0.00 | 0.00 | 0.00 | 54 | 1014.2 |
| 20260502151505 | 12 | 277 | 17.7 | 24.1 | 0.00 | 0.00 | 0.00 | 56 | 1014.3 |
| 20260502151003 | 12 | 271 | 17.7 | 24.1 | 0.00 | 0.00 | 0.00 | 57 | 1014.4 |
| 20260502150502 | 12 | 249 | 17.7 | 24.1 | 0.00 | 0.00 | 0.00 | 57 | 1014.4 |
| 20260502130532 | 5 | 360 | 9.7 | 16.1 | 0.00 | 0.00 | 0.00 | 74 | 1015.6 |
| 20260502123523 | 2 | 360 | 3.2 | 6.4 | 0.00 | 0.00 | 0.00 | 82 | 1016.0 |
| 20260502123031 | 2 | 360 | 3.2 | 8.0 | 0.00 | 0.00 | 0.00 | 80 | 1016.2 |
| 20260502122520 | 2 | 360 | 3.2 | 8.0 | 0.00 | 0.00 | 0.00 | 80 | 1016.2 |
| 20260502122020 | 2 | 360 | 3.2 | 8.0 | 0.00 | 0.00 | 0.00 | 80 | 1016.2 |
| 20260502121524 | 2 | 360 | 4.8 | 8.0 | 0.00 | 0.00 | 0.00 | 80 | 1016.3 |
| 20260502121018 | 1 | 360 | 3.2 | 8.0 | 0.00 | 0.00 | 0.00 | 82 | 1016.2 |
| 20260502120521 | 1 | 360 | 3.2 | 6.4 | 0.00 | 0.00 | 0.00 | 83 | 1016.1 |
| 20260502115519 | 0 | 360 | 1.6 | 4.8 | 0.00 | 0.00 | 0.00 | 84 | 1016.1 |
| 20260502115017 | 0 | 360 | 1.6 | 4.8 | 0.00 | 0.00 | 0.00 | 86 | 1016.2 |
| 20260502114517 | 0 | 360 | 0.0 | 3.2 | 0.00 | 0.00 | 0.00 | 87 | 1016.2 |
| 20260502114017 | 0 | 360 | 0.0 | 0.0 | 0.00 | 0.00 | 0.00 | 87 | 1016.2 |
| 20260502113518 | 0 | 360 | 0.0 | 0.0 | 0.00 | 0.00 | 0.00 | 87 | 1016.2 |
| 20260502113016 | 0 | 360 | 0.0 | 0.0 | 0.00 | 0.00 | 0.00 | 86 | 1016.3 |
| 20260502112514 | 0 | 360 | 0.0 | 0.0 | 0.00 | 0.00 | 0.00 | 86 | 1016.3 |
| 20260502112013 | 0 | 360 | 0.0 | 0.0 | 0.00 | 0.00 | 0.00 | 85 | 1016.5 |
| 20260502111513 | 0 | 360 | 0.0 | 0.0 | 0.00 | 0.00 | 0.00 | 85 | 1016.5 |
| 20260502111012 | 0 | 360 | 0.0 | 0.0 | 0.00 | 0.00 | 0.00 | 85 | 1016.4 |
| 20260502110512 | 0 | 360 | 0.0 | 0.0 | 0.00 | 0.00 | 0.00 | 86 | 1016.5 |
| 20260502110015 | 0 | 360 | 0.0 | 1.6 | 0.00 | 0.00 | 0.00 | 86 | 1016.6 |
| 20260502105514 | 0 | 360 | 0.0 | 3.2 | 0.00 | 0.00 | 0.00 | 86 | 1016.6 |
| 20260502105010 | 0 | 360 | 0.0 | 3.2 | 0.00 | 0.00 | 0.00 | 85 | 1016.6 |
| 20260502104515 | 0 | 360 | 0.0 | 0.0 | 0.00 | 0.00 | 0.00 | 84 | 1016.7 |
| 20260502104009 | 0 | 360 | 0.0 | 0.0 | 0.00 | 0.00 | 0.00 | 85 | 1016.7 |
| 20260502103512 | 0 | 360 | 0.0 | 0.0 | 0.00 | 0.00 | 0.00 | 86 | 1016.7 |
| 20260502103008 | 0 | 360 | 0.0 | 0.0 | 0.00 | 0.00 | 0.00 | 86 | 1016.9 |
| 20260502102507 | 0 | 360 | 0.0 | 0.0 | 0.00 | 0.00 | 0.00 | 87 | 1016.9 |
| 20260502102007 | 0 | 360 | 0.0 | 0.0 | 0.00 | 0.00 | 0.00 | 88 | 1016.9 |
| 20260502101510 | 0 | 360 | 0.0 | 0.0 | 0.00 | 0.00 | 0.00 | 88 | 1016.9 |
| 20260502101005 | 0 | 360 | 0.0 | 0.0 | 0.00 | 0.00 | 0.00 | 88 | 1017.1 |
| 20260502100505 | 0 | 360 | 0.0 | 0.0 | 0.00 | 0.00 | 0.00 | 89 | 1017.1 |
| 20260502091059 | 0 | 360 | 0.0 | 0.0 | 0.00 | 0.00 | 0.00 | 89 | 1017.3 |
| 20260502090558 | 0 | 360 | 0.0 | 0.0 | 0.00 | 0.00 | 0.00 | 90 | 1017.4 |
| 20260502090105 | 0 | 360 | 0.0 | 0.0 | 0.00 | 0.00 | 0.00 | 90 | 1017.4 |
| 20260502080109 | -1 | 360 | 0.0 | 0.0 | 0.00 | 0.00 | 0.00 | 91 | 1017.8 |
| 20260502071045 | 0 | 360 | 0.0 | 0.0 | 0.00 | 0.00 | 0.00 | 87 | 1018.1 |
| 20260502070543 | 0 | 360 | 0.0 | 0.0 | 0.00 | 0.00 | 0.00 | 86 | 1018.0 |
| 20260502070055 | 0 | 360 | 0.0 | 0.0 | 0.00 | 0.00 | 0.00 | 86 | 1018.1 |
| 20260502065541 | 0 | 360 | 0.0 | 0.0 | 0.00 | 0.00 | 0.00 | 85 | 1018.2 |
| 20260502065039 | 0 | 360 | 0.0 | 0.0 | 0.00 | 0.00 | 0.00 | 85 | 1018.2 |
| 20260502064547 | 0 | 360 | 0.0 | 0.0 | 0.00 | 0.00 | 0.00 | 84 | 1018.2 |
| 20260502064037 | 0 | 360 | 0.0 | 0.0 | 0.00 | 0.00 | 0.00 | 83 | 1018.2 |
| 20260502063536 | 1 | 360 | 0.0 | 0.0 | 0.00 | 0.00 | 0.00 | 83 | 1018.3 |
| 20260502063037 | 1 | 360 | 0.0 | 0.0 | 0.00 | 0.00 | 0.00 | 84 | 1018.4 |
| 20260502062535 | 1 | 360 | 0.0 | 0.0 | 0.00 | 0.00 | 0.00 | 83 | 1018.3 |
| 20260502062036 | 1 | 360 | 0.0 | 0.0 | 0.00 | 0.00 | 0.00 | 82 | 1018.3 |
| 20260502061535 | 1 | 360 | 0.0 | 3.2 | 0.00 | 0.00 | 0.00 | 84 | 1018.4 |
| 20260502061034 | 1 | 360 | 1.6 | 3.2 | 0.00 | 0.00 | 0.00 | 85 | 1018.3 |
| 20260502060533 | 1 | 360 | 1.6 | 3.2 | 0.00 | 0.00 | 0.00 | 87 | 1018.4 |
| 20260502060033 | 1 | 360 | 0.0 | 3.2 | 0.00 | 0.00 | 0.00 | 87 | 1018.3 |
| 20260502055530 | 0 | 360 | 0.0 | 3.2 | 0.00 | 0.00 | 0.00 | 85 | 1018.4 |
| 20260502055030 | 0 | 360 | 0.0 | 0.0 | 0.00 | 0.00 | 0.00 | 86 | 1018.5 |
| 20260502054534 | 0 | 360 | 0.0 | 0.0 | 0.00 | 0.00 | 0.00 | 86 | 1018.5 |
| 20260502054028 | 1 | 360 | 0.0 | 3.2 | 0.00 | 0.00 | 0.00 | 86 | 1018.5 |
| 20260502053529 | 1 | 360 | 0.0 | 3.2 | 0.00 | 0.00 | 0.00 | 87 | 1018.5 |
| 20260502053027 | 1 | 360 | 0.0 | 0.0 | 0.00 | 0.00 | 0.00 | 88 | 1018.5 |
| 20260502052526 | 1 | 360 | 0.0 | 0.0 | 0.00 | 0.00 | 0.00 | 89 | 1018.5 |
| 20260502052025 | 0 | 360 | 0.0 | 0.0 | 0.00 | 0.00 | 0.00 | 88 | 1018.5 |
| 20260502051529 | 0 | 360 | 0.0 | 0.0 | 0.00 | 0.00 | 0.00 | 87 | 1018.4 |
| 20260502051021 | 0 | 360 | 0.0 | 0.0 | 0.00 | 0.00 | 0.00 | 84 | 1018.4 |
| 20260502050521 | 0 | 360 | 0.0 | 0.0 | 0.00 | 0.00 | 0.00 | 84 | 1018.5 |
| 20260502050024 | 0 | 360 | 0.0 | 0.0 | 0.00 | 0.00 | 0.00 | 82 | 1018.5 |
| 20260502045523 | 1 | 360 | 0.0 | 3.2 | 0.00 | 0.00 | 0.00 | 81 | 1018.5 |
| 20260502045020 | 1 | 360 | 0.0 | 3.2 | 0.00 | 0.00 | 0.00 | 80 | 1018.5 |
| 20260502044519 | 1 | 360 | 0.0 | 0.0 | 0.00 | 0.00 | 0.00 | 82 | 1018.5 |
| 20260502044018 | 1 | 360 | 0.0 | 0.0 | 0.00 | 0.00 | 0.00 | 81 | 1018.5 |
| 20260502043518 | 1 | 360 | 0.0 | 0.0 | 0.00 | 0.00 | 0.00 | 80 | 1018.6 |
| 20260502043018 | 1 | 360 | 0.0 | 0.0 | 0.00 | 0.00 | 0.00 | 79 | 1018.5 |
| 20260502042518 | 1 | 360 | 0.0 | 0.0 | 0.00 | 0.00 | 0.00 | 78 | 1018.6 |
| 20260502042020 | 2 | 360 | 0.0 | 3.2 | 0.00 | 0.00 | 0.00 | 78 | 1018.6 |
| 20260502041521 | 2 | 360 | 0.0 | 3.2 | 0.00 | 0.00 | 0.00 | 75 | 1018.7 |
| 20260502041017 | 3 | 360 | 0.0 | 1.6 | 0.00 | 0.00 | 0.00 | 74 | 1018.7 |
| 20260502040520 | 3 | 360 | 0.0 | 0.0 | 0.00 | 0.00 | 0.00 | 71 | 1018.7 |
| 20260502040017 | 3 | 360 | 0.0 | 0.0 | 0.00 | 0.00 | 0.00 | 71 | 1018.7 |
| 20260502035517 | 3 | 360 | 0.0 | 3.2 | 0.00 | 0.00 | 0.00 | 69 | 1018.7 |
| 20260502035017 | 3 | 360 | 0.0 | 3.2 | 0.00 | 0.00 | 0.00 | 69 | 1018.7 |
| 20260502034517 | 4 | 360 | 1.6 | 3.2 | 0.00 | 0.00 | 0.00 | 69 | 1018.8 |
| 20260502034016 | 4 | 360 | 1.6 | 3.2 | 0.00 | 0.00 | 0.00 | 70 | 1018.8 |
| 20260502033519 | 4 | 360 | 1.6 | 3.2 | 0.00 | 0.00 | 0.00 | 72 | 1018.8 |
| 20260502033017 | 4 | 360 | 1.6 | 3.2 | 0.00 | 0.00 | 0.00 | 74 | 1018.9 |
| 20260502032515 | 4 | 360 | 0.0 | 1.6 | 0.00 | 0.00 | 0.00 | 77 | 1018.8 |
| 20260502032015 | 4 | 360 | 0.0 | 1.6 | 0.00 | 0.00 | 0.00 | 72 | 1018.9 |
| 20260502031515 | 4 | 360 | 0.0 | 0.0 | 0.00 | 0.00 | 0.00 | 61 | 1018.9 |
| 20260502031018 | 3 | 360 | 0.0 | 0.0 | 0.00 | 0.00 | 0.00 | 62 | 1018.9 |
| 20260502030515 | 4 | 360 | 0.0 | 3.2 | 0.00 | 0.00 | 0.00 | 67 | 1018.8 |
| 20260502030015 | 5 | 360 | 0.0 | 3.2 | 0.00 | 0.00 | 0.00 | 68 | 1018.7 |
| 20260502025522 | 5 | 360 | 0.0 | 0.0 | 0.00 | 0.00 | 0.00 | 56 | 1018.8 |
| 20260502025015 | 5 | 360 | 0.0 | 0.0 | 0.00 | 0.00 | 0.00 | 57 | 1018.8 |
| 20260502024522 | 5 | 360 | 0.0 | 0.0 | 0.00 | 0.00 | 0.00 | 60 | 1018.8 |
| 20260502024014 | 6 | 360 | 0.0 | 0.0 | 0.00 | 0.00 | 0.00 | 61 | 1018.8 |
| 20260502023514 | 6 | 360 | 0.0 | 0.0 | 0.00 | 0.00 | 0.00 | 58 | 1018.8 |
| 20260502023114 | 6 | 360 | 0.0 | 0.0 | 0.00 | 0.00 | 0.00 | 59 | 1018.7 |
| 20260502022515 | 7 | 360 | 0.0 | 0.0 | 0.00 | 0.00 | 0.00 | 62 | 1018.7 |
| 20260502022017 | 7 | 360 | 0.0 | 0.0 | 0.00 | 0.00 | 0.00 | 57 | 1018.6 |
| 20260502021515 | 7 | 360 | 0.0 | 0.0 | 0.00 | 0.00 | 0.00 | 50 | 1018.6 |
| 20260502021013 | 7 | 360 | 0.0 | 0.0 | 0.00 | 0.00 | 0.00 | 51 | 1018.6 |
| 20260502020514 | 7 | 360 | 0.0 | 0.0 | 0.00 | 0.00 | 0.00 | 54 | 1018.5 |
| 20260502020014 | 7 | 360 | 0.0 | 0.0 | 0.00 | 0.00 | 0.00 | 53 | 1018.5 |
| 20260502015512 | 8 | 360 | 0.0 | 0.0 | 0.00 | 0.00 | 0.00 | 51 | 1018.5 |
| 20260502015012 | 8 | 360 | 0.0 | 0.0 | 0.00 | 0.00 | 0.00 | 46 | 1018.4 |
| 20260502014512 | 8 | 360 | 0.0 | 0.0 | 0.00 | 0.00 | 0.00 | 45 | 1018.4 |
| 20260502014014 | 8 | 360 | 0.0 | 0.0 | 0.00 | 0.00 | 0.00 | 45 | 1018.4 |
| 20260502013511 | 9 | 360 | 0.0 | 0.0 | 0.00 | 0.00 | 0.00 | 44 | 1018.5 |
| 20260502013014 | 9 | 360 | 0.0 | 0.0 | 0.00 | 0.00 | 0.00 | 43 | 1018.6 |
| 20260502012512 | 9 | 360 | 0.0 | 0.0 | 0.00 | 0.00 | 0.00 | 43 | 1018.5 |
| 20260502012014 | 9 | 360 | 0.0 | 0.0 | 0.00 | 0.00 | 0.00 | 42 | 1018.5 |
| 20260502011512 | 10 | 360 | 0.0 | 0.0 | 0.00 | 0.00 | 0.00 | 43 | 1018.5 |
| 20260502011011 | 10 | 360 | 0.0 | 1.6 | 0.00 | 0.00 | 0.00 | 42 | 1018.5 |
| 20260502010513 | 10 | 360 | 0.0 | 1.6 | 0.00 | 0.00 | 0.00 | 42 | 1018.4 |
| 20260502010020 | 10 | 360 | 0.0 | 1.6 | 0.00 | 0.00 | 0.00 | 42 | 1018.4 |
| 20260502005510 | 10 | 360 | 0.0 | 3.2 | 0.00 | 0.00 | 0.00 | 42 | 1018.3 |
| 20260502005013 | 10 | 360 | 0.0 | 3.2 | 0.00 | 0.00 | 0.00 | 42 | 1018.3 |
| 20260502004514 | 10 | 360 | 0.0 | 3.2 | 0.00 | 0.00 | 0.00 | 41 | 1018.3 |
| 20260502004024 | 10 | 360 | 0.0 | 6.4 | 0.00 | 0.00 | 0.00 | 41 | 1018.3 |
| 20260502003510 | 10 | 360 | 1.6 | 6.4 | 0.00 | 0.00 | 0.00 | 41 | 1018.5 |
| 20260502003009 | 11 | 360 | 1.6 | 4.8 | 0.00 | 0.00 | 0.00 | 41 | 1018.4 |
| 20260502002511 | 11 | 360 | 0.0 | 6.4 | 0.00 | 0.00 | 0.00 | 42 | 1018.4 |
| 20260502002011 | 11 | 309 | 0.0 | 6.4 | 0.00 | 0.00 | 0.00 | 40 | 1018.3 |
| 20260502001510 | 11 | 66 | 0.0 | 4.8 | 0.00 | 0.00 | 0.00 | 41 | 1018.3 |
| 20260502001012 | 11 | 67 | 1.6 | 8.0 | 0.00 | 0.00 | 0.00 | 41 | 1018.3 |
| 20260502000508 | 11 | 66 | 1.6 | 12.9 | 0.00 | 0.00 | 0.00 | 39 | 1018.2 |
| 20260502000014 | 11 | 337 | 0.0 | 12.9 | 0.00 | 0.00 | 0.00 | 39 | 1018.4 |
| 20260501235508 | 11 | 28 | 1.6 | 8.0 | 0.00 | 0.00 | 0.00 | 39 | 1018.3 |
| 20260501235011 | 11 | 70 | 1.6 | 8.0 | 0.00 | 0.00 | 0.00 | 39 | 1018.3 |
| 20260501234507 | 11 | 68 | 3.2 | 8.0 | 0.00 | 0.00 | 0.00 | 39 | 1018.3 |
| 20260501234007 | 11 | 338 | 1.6 | 8.0 | 0.00 | 0.00 | 0.00 | 40 | 1018.4 |
| 20260501233510 | 11 | 59 | 1.6 | 8.0 | 0.00 | 0.00 | 0.00 | 41 | 1018.5 |
| 20260501233006 | 11 | 310 | 1.6 | 6.4 | 0.00 | 0.00 | 0.00 | 41 | 1018.4 |
| 20260501232506 | 11 | 83 | 1.6 | 8.0 | 0.00 | 0.00 | 0.00 | 40 | 1018.3 |
| 20260501232005 | 11 | 65 | 3.2 | 8.0 | 0.00 | 0.00 | 0.00 | 43 | 1018.3 |
| 20260501231505 | 11 | 360 | 1.6 | 8.0 | 0.00 | 0.00 | 0.00 | 42 | 1018.4 |
| 20260501231005 | 11 | 320 | 3.2 | 9.7 | 0.00 | 0.00 | 0.00 | 43 | 1018.4 |
| 20260501230505 | 11 | 38 | 3.2 | 9.7 | 0.00 | 0.00 | 0.00 | 42 | 1018.4 |
| 20260501230004 | 11 | 69 | 3.2 | 11.3 | 0.00 | 0.00 | 0.00 | 41 | 1018.3 |
| 20260501225504 | 11 | 51 | 1.6 | 8.0 | 0.00 | 0.00 | 0.00 | 42 | 1018.3 |
| 20260501225003 | 11 | 51 | 3.2 | 9.7 | 0.00 | 0.00 | 0.00 | 42 | 1018.4 |
| 20260501224505 | 11 | 80 | 3.2 | 9.7 | 0.00 | 0.00 | 0.00 | 41 | 1018.4 |
| 20260501224004 | 11 | 57 | 3.2 | 12.9 | 0.00 | 0.00 | 0.00 | 41 | 1018.3 |
| 20260501223503 | 11 | 50 | 3.2 | 14.5 | 0.00 | 0.00 | 0.00 | 43 | 1018.3 |
| 20260501223003 | 11 | 311 | 4.8 | 14.5 | 0.00 | 0.00 | 0.00 | 42 | 1018.4 |
| 20260501222503 | 11 | 16 | 1.6 | 9.7 | 0.00 | 0.00 | 0.00 | 40 | 1018.4 |
| 20260501222002 | 11 | 63 | 4.8 | 14.5 | 0.00 | 0.00 | 0.00 | 41 | 1018.4 |
| 20260501221509 | 11 | 46 | 6.4 | 14.5 | 0.00 | 0.00 | 0.00 | 44 | 1018.3 |
| 20260501221004 | 11 | 304 | 1.6 | 8.0 | 0.00 | 0.00 | 0.00 | 42 | 1018.4 |